www.pogodaiklimat.ru

Погода и климат >> Архив погоды >> Россия >> Челябинская область >> Катав-Ивановск


ПОГОДА в Катав-Ивановске

  • Прогноз погоды в Катав-Ивановске
  • Монитор погоды в Катав-Ивановске
  • Климат города

АРХИВ ПОГОДЫ в Катав-Ивановске

Время (UTC), дата Ветер
(напр.,м/с)
 
Видим.   Явления Облачность Т
(С)
Тd
(С)
f
(%)
Тe
(С)
Тes
(С)
Комфортность P
(гПа)
Po
(гПа)
Тmin
(С)
Tmax
(С)
R
(мм)
R24
(мм)
S
(см)
09 18.04 З 2
{10}
20 км {ливн. осадки} 10/10 600 м
[Cu Sc]
+7.9 +4.1 77 +6 +6 1017.9 961.0
12 18.04 З 1 4000 м слабый ливневой дождь 10/10 600 м
[Cb cap]
+6.1 +5.1 93 +5 +5 1018.8 961.6
15 18.04 СЗ 1 50 км {ливн. осадки} 9/9 600 м
[Cu Sc]
+3.6 +3.2 97 +2 +2 1020.0 962.1 +9.6 0.4
18 18.04 штиль 0 10 км {ливн. осадки} 10/10 600 м
[Sc]
+2.5 +2.4 99 +1 +1 1021.3 963.1
21 18.04 СЗ 2 4000 м слабый дождь 10/0
[As op]
+1.1 +1.1 100 -3 -3 1021.8 963.3
00 19.04 штиль 0 10 км {дождь} 10/0
[As op]
+0.3 +0.3 100 -1 -1 1022.4 963.7
03 19.04 СЗ 1 10 км 10/0
[Ac As]
+0.4 +0.4 100 -2 -1 1022.9 964.2 +0.3 0.7 1
06 19.04 С 2 4000 м слабая морось {дождь} 10/10 600 м
[St]
+0.5 0.0 96 -3 -3 1023.0 964.3
09 19.04 С 2 20 км {морось} 10/10 600 м
[St]
+2.1 +1.0 92 -1 -1 1022.3 964.0
12 19.04 С 2 50 км {морось} 10/10 600 м
[St]
+4.3 +1.7 83 +2 +2 1021.2 963.3
15 19.04 СЗ 1 50 км 8/6 600 м
[Sc Ac cast]
+3.2 +0.9 85 +2 +2 1021.2 963.1 +4.6 0.1
18 19.04 штиль 0 10 км 6/0
[Ac trans]
+1.5 +0.8 95 0 0 1021.3 962.9
21 19.04 штиль 0 10 км ясно -0.6 -0.6 100 -2 -2 1020.7 961.9
00 20.04 В 1 10 км ясно +0.4 +0.4 100 -2 -2 1019.4 960.9
03 20.04 СВ 1 50 км 4/0
[Ci fib]
+3.5 +2.1 91 +2 +4 1017.0 959.2 -1.0 0
06 20.04 ЮВ 2 50 км 8/0
[Ci fib]
+16.5 +0.3 33 +17 +25 1013.0 957.9
09 20.04 Ю 2 50 км 9/0
[Ci fib]
+17.3 -0.9 29 +18 +27 1010.9 956.1
12 20.04 Ю 2
{11}
50 км 10/0
[Ci fib]
+17.1 -1.8 27 +18 +22 1008.9 954.2
15 20.04 В 1 50 км 10/10 600 м
[Sc]
+14.7 -1.1 34 +15 +15 1006.3 951.3 +17.9
18 20.04 ЮВ 1
{11}
10 км 10/10 600 м
[Sc]
+10.2 +3.4 63 +10 +10 1006.9 951.0
21 20.04 ЮЗ 3 10 км 10/10 600 м
[Sc]
+6.7 +2.4 74 +4 +4 1008.3 951.7
00 21.04 ЮЗ 1
{11}
10 км 10/10 600 м
[Sc]
+1.4 -1.6 80 -0 -0 1010.6 952.7
03 21.04 ЮЗ 4 50 км 3/3 600 м
[Cu med, cong]
-0.9 -7.4 61 -6 -5 1011.8 953.4 -0.9
06 21.04 ЮЗ 5
{12}
50 км 4/4 600 м
[Cu med, cong]
-0.3 -8.7 53 -6 -3 1012.4 954.1 -0.9
09 21.04 З 3-10
{11}
50 км 6/6 600 м
[Cu Sc]
+1.3 -8.8 47 -2 +2 1012.7 954.7
12 21.04 З 3
{10}
50 км 9/9 600 м
[Sc]
-0.6 -9.4 51 -5 -4 1013.8 955.3
15 21.04 ЮЗ 2 20 км в посл. час ливневой снег 9/9 600 м
[Sc]
-1.5 -6.9 67 -5 -5 1014.5 955.8 +1.4 0.1
18 21.04 ЮЗ 2 4000 м слабый ливневой снег 8/8 600 м
[Cb cap]
-2.5 -5.6 79 -6 -6 1015.9 956.9
21 21.04 Ю 2 10 км ясно -2.7 -6.1 77 -7 -7 1016.2 957.1
00 22.04 Ю 3 10 км ясно -3.4 -6.9 77 -9 -9 1017.0 957.8
03 22.04 Ю 2 50 км ясно -1.8 -6.8 69 -5 -3 1017.7 958.8 -4.4 0.0
06 22.04 ЮЗ 2 50 км 3/0
[Ci fib]
+3.8 -10.1 35 +2 +11 опасность
простуды
1016.2 958.5
09 22.04 ЮЗ 1 50 км 10/0
[Ci sp]
+6.8 -10.8 27 +7 +18 опасность
простуды
1013.5 956.5
12 22.04 Ю 1 50 км 10/0
[Ac As]
+6.1 -9.3 32 +6 +8 1012.0 955.0
15 22.04 Ю 1 50 км 10/0
[As op]
+3.1 -1.1 74 +2 +2 1010.8 953.3 +7.5
18 22.04 СЗ 1 10 км {дождь} 10/0
[Ac As]
+2.8 -3.4 64 +2 +2 1008.3 950.9
21 22.04 ЮВ 2 10 км в посл. час ливневой дождь 10/10 600 м
[Sc]
+2.6 -0.4 81 -0 -0 1003.7 946.5
00 23.04 З 1 10 км {ливн. осадки} 9/9 600 м
[Sc]
+2.6 -0.3 81 +1 +1 1000.7 943.7
03 23.04 ЮЗ 1 4000 м слабый ливневой дождь 10/10 600 м
[Cb cap]
+1.6 +1.6 100 -1 -1 1001.2 944.0 +0.9 1
06 23.04 З 2 20 км {ливн. осадки} 10/10 600 м
[Cu Sc]
+2.9 +1.5 90 -0 -0 1002.2 945.2
09 23.04 ЮЗ 3 4000 м слабый ливневой дождь 10/10 600 м
[Cb cap]
+1.5 +0.8 95 -3 -3 1006.7 949.1
12 23.04 ЮЗ 3
{10}
20 км {ливн. осадки} 10/10 600 м
[Cu Sc]
+2.4 +1.1 91 -2 -2 1010.0 952.4
15 23.04 Ю 1 4000 м слабая морось {ливн. осадки} 10/10 600 м
[St]
+1.9 +1.6 98 -0 -0 1012.4 954.6 +3.8 0.0
18 23.04 ЮВ 1 10 км в посл. час морось {ливн. осадки} 9/9 600 м
[St]
+1.9 +1.8 99 -0 -0 1014.3 956.4
21 23.04 Ю 2 10 км 9/9 600 м
[Sc]
+2.2 +2.0 99 -1 -1 1015.2 957.3
00 24.04 ЮВ 2 10 км 10/10 600 м
[Sc]
+1.5 +1.5 100 -2 -2 1015.7 957.6
03 24.04 штиль 0 4000 м слабый дождь 10/0 600 м
[As op]
+2.3 +2.3 100 +1 +2 1015.8 957.9 +0.8 1
06 24.04 ЮВ 1 20 км {дождь} 9/9 600 м
[Sc]
+7.5 +6.0 90 +7 +8 1013.0 956.3
09 24.04 Ю 2 4000 м слабый ливневой дождь 10/10 600 м
[Cb cap]
+7.4 +4.5 82 +5 +5 1012.1 955.5
12 24.04 ЮВ 2 4000 м слабый дождь {ливн. осадки} 10/0 600 м
[As op]
+7.1 +5.8 91 +5 +6 1006.2 949.9
15 24.04 В 2 4000 м слабый дождь 10/0 600 м
[As op]
+8.2 +7.5 95 +6 +6 1003.8 947.8 +9.1 7
18 24.04 Ю 2 10 км {дождь} 9/0 600 м
[As op]
+10.4 +5.9 74 +9 +9 1001.9 946.4
21 24.04 Ю 2 10 км ясно +10.4 +6.1 75 +9 +9 1002.3 946.7
00 25.04 ЮЗ 1
{10}
10 км 9/9 600 м
[Sc]
+7.6 +1.5 65 +7 +7 1004.4 948.2
03 25.04 ЮЗ 3
{13}
50 км 9/9 600 м
[Cu Sc]
+6.5 +1.3 69 +4 +4 1007.8 951.1 +6.4 0.1

 

Местоположение метеостанции Катав-Ивановск (Челябинская область, Россия): широта 54.77 долгота 58.22 высота над уровнем моря 477 м.

В архиве по умолчанию представлена погода в Катав-Ивановске за последнюю неделю. Архивные данные за месяц целиком и за предыдущие месяцы, начиная с января 2011 года, Вы можете получить, выбрав интересующий диапазон дат из раскрывающегося списка и нажав кнопку "Ввод!".

Внимание! Время в таблицах - всемирное. Для получения местного времени необходимо прибавить поправку, которая в Катав-Ивановске равна 5 ч.

Смотрите также архив погоды в соседних городах и на ближайших метеорологических станциях:

Погода в Улу-Теляке (Башкирия, Россия) (83 км)
Погода в Учалах (Башкирия, Россия) (90 км)
Погода в Белорецке (Башкирия, Россия) (94 км)
Погода в Архангельском (Башкирия, Россия) (100 км)
Погода в Златоусте (Челябинская область, Россия) (103 км)
Погода в Дуване (Башкирия, Россия) (105 км)
Погода в Тукане (Башкирия, Россия) (109 км)
Погода в Верхнеуральске (Челябинская область, Россия) (118 км)
Погода в Миассе (Челябинская область, Россия) (122 км)
Погода в Емашах (Башкирия, Россия) (131 км)

Пояснения к столбцам:

Ветер - указаны скорость ветра в м/с - средняя за 10 мин, порывы в срок и между сроками (в фигурных скобках) и направление, откуда дует ветер: С - северный, СВ - северо-восточный, В - восточный, ЮВ - юго-восточный, Ю - южный, ЮЗ - юго-западный, З - западный, СЗ - северо-западный.
Видимость - горизонтальная дальность видимости в метрах или километрах. При видимости от 1 до 10 км при отсутствии осадков обычно наблюдается дымка, при ухудшении видимости до 1 км и менее - туман. В сухую погоду видимость может ухудшаться дымом, пылью или мглою.
Явления - указаны атмосферные явления, наблюдавшиеся в срок или в последний час перед сроком; фигурными скобками обозначены явления, наблюдавшиеся между сроками (за 1-3 часа до срока); квадратными скобками обозначены град или гололедные отложения с указанием их диаметра в мм.
Облачность - указаны через наклонную черту общая и нижняя облачность в баллах и высота нижней границы облаков в метрах; квадратными скобками обозначены формы облаков: Ci - перистые, Cs - перисто-слоистые, Cc - перисто-кучевые, Ac - высококучевые, As - высокослоистые, Sc - слоисто-кучевые, Ns - слоисто-дождевые, Cu - кучевые, Cb - кучево-дождевые. Подробнее классификацию облаков см. в Атласе облаков (PDF).
T - Температура воздуха - температура, измеренная на высоте 2 м над землей.
Td - Температура точки росы - температура, при понижении до которой содержащийся в воздухе водяной пар достигнет насыщения.
f - Относительная влажность воздуха - влажноcть воздуха, измеренная на высоте 2 м над землей.
Te - Эффективная температура - температура, которую ощущает одетый по сезону человек в тени. Характеристика душности погоды. При расчете учитывается влияние влажности воздуха и скорости ветра на теплоощущения человека.
Tes - Эффективная температура на солнце - температура, которую ощущает человек, с поправкой на солнечный нагрев. Характеристика знойности погоды. Зависит от высоты солнца над горизонтом, облачности и скорости ветра. Ночью, в пасмурную погоду, а также при ветре 12 м/с и более поправка равна нулю.
P - Атмосферное давление - приведенное к уровню моря атмосферное давление.
Po - Атмосферное давление - измеренное на уровне метеостанции атмосферное давление.
Tmin - Минимальная температура - минимум температуры воздуха на высоте 2 м над землей.
Tmax - Максимальная температура - максимум температуры воздуха на высоте 2 м над землей.
R - Количество осадков - Количество выпавших осадков за период времени, мм. При наведении курсора мыши на число - период времени, за который выпало указанное количество осадков.
R24 - Количество осадков - Количество выпавших осадков за 24 часа, мм.
S - Снежный покров - Высота снежного покрова, см. При наведении курсора мыши на число - состояние снежного покрова и степень покрытия местности в баллах.